Hourly Data Report for January 11, 2022

TERRACE A
BRITISH COLUMBIA
Current Station Operator: NAVCAN

54°28'07.000" N
128°34'42.000" W
217.30 m
1068134
71951
YXT

Download Data

Hourly Data (January 2022)
Hourly Data Report for January 11, 2022
TIME
LST
Temp Definition
°C
Dew Point Definition
°C
Rel Hum Definition
%
Precip. Amount Definition
mm

Wind Dir Definition
10's deg

Wind Spd Definition
km/h
Visibility Definition
km
Stn Press Definition
kPa
Hmdx Definition


Wind Chill Definition


Weather Definition


00:00 0.2 0.2 100 LegendMM 4 5 3.2 97.79     Rain Showers, Fog
01:00 0.0 0.0 100 LegendMM 35 7 1.2 97.77   -2 Fog
02:00 0.0 0.0 100 LegendMM 28 4 2.4 97.69   -1 Rain Showers, Fog
03:00 0.0 0.0 100 LegendMM 16 6 3.2 97.73   -2 Rain Showers, Fog
04:00 0.4 0.4 100 LegendMM 36 3 4.0 97.75     Rain Showers, Fog
05:00 0.5 0.5 100 LegendMM 1 8 9.7 97.79     Rain Showers, Fog
06:00 0.4 0.4 100 LegendMM 25 4 1.2 97.90     Rain, Rain Showers, Fog
07:00 0.3 0.3 100 LegendMM 12 10 4.8 98.03     Rain, Fog
08:00 0.3 0.3 100 LegendMM 6 6 1.0 98.12     Rain, Fog
09:00 1.3 1.3 100 LegendMM 15 9 3.2 98.25     Rain, Fog
10:00 1.3 1.3 100 LegendMM 20 5 4.0 98.34     Fog
11:00 1.8 1.8 100 LegendMM 16 14 6.4 98.45     Rain, Fog
12:00 2.7 2.7 100 LegendMM 19 23 11.3 98.51     LegendNANA
13:00 2.4 2.2 99 LegendMM 23 12 16.1 98.54     Cloudy
14:00 3.6 2.7 94 LegendMM 18 30 16.1 98.54     LegendNANA
15:00 3.8 3.0 94 LegendMM 18 40 16.1 98.54     Rain Showers
16:00 3.4 3.1 98 LegendMM 19 18 16.1 98.53     Rain Showers
17:00 3.0 2.8 98 LegendMM 26 4 24.1 98.47     LegendNANA
18:00 2.2 2.2 100 LegendMM 35 8 16.1 98.44     LegendNANA
19:00 1.6 1.5 100 LegendMM 36 2 8.1 98.46     Rain, Fog
20:00 0.9 0.9 100 LegendMM 35 4 9.7 98.42     Rain, Fog
21:00 1.4 1.4 100 LegendMM 35 10 8.1 98.42     Rain, Fog
22:00 0.9 0.9 100 LegendMM 36 3 2.4 98.42     Rain, Fog
23:00 0.5 0.5 100 LegendMM 14 4 1.2 98.47     Rain, Fog

Notes on Data Quality.

Legend

  • E = Estimated
  • M = Missing
  • NA = Not Available*
  • [empty] = Indicates an unobserved value
Date modified: